VE3KSR Weather Reports


Display with metric or nautical units.
time (UTC)temp
F
wind
direction
speed
MPH
gust
MPH
rain 1hr
in
rain 24hr
in
rain mn
in
humidity
%
barometer
mb
20150901201103 68 288 12.0 14.0 0.70 0.00 0.00 66 1014.0
20150901200745 67 311 9.0 13.0 0.70 0.00 0.00 67 1014.1
20150901200603 67 311 9.0 13.0 0.70 0.00 0.00 67 1014.1
20150901200103 68 307 11.0 15.0 0.70 0.00 0.00 65 1014.2
20150901195603 68 287 11.0 13.0 0.70 0.00 0.00 65 1014.2
20150901195105 68 294 9.0 13.0 0.70 0.00 0.00 65 1014.2
20150901193604 68 309 9.0 12.0 0.70 0.00 0.00 67 1014.4
20150901193104 67 288 11.0 15.0 0.70 0.00 0.00 67 1014.4
20150901192603 67 301 11.0 16.0 0.70 0.00 0.00 66 1014.5
20150901192103 67 301 9.0 13.0 0.70 0.00 0.00 67 1014.6
20150901191603 67 305 7.0 10.0 0.70 0.00 0.00 70 1014.6
20150901191103 67 294 12.0 16.0 0.70 0.00 0.00 68 1014.6
20150901190605 65 298 11.0 13.0 0.70 0.00 0.00 67 1014.6
20150901190104 66 294 11.0 15.0 0.70 0.00 0.00 66 1014.8
20150901185603 67 307 8.0 11.0 0.70 0.00 0.00 68 1014.8
20150901185104 67 293 11.0 14.0 0.70 0.00 0.00 68 1014.7
20150901184604 68 287 10.0 15.0 0.70 0.00 0.00 68 1015.0
20150901184103 67 291 12.0 15.0 0.70 0.00 0.00 68 1015.0
20150901183603 66 288 11.0 15.0 0.70 0.00 0.00 68 1015.0
20150901183106 67 285 9.0 13.0 0.70 0.00 0.00 69 1015.0
20150901182603 67 290 10.0 13.0 0.70 0.00 0.00 70 1015.0
20150901182107 67 314 10.0 12.0 0.70 0.00 0.00 69 1015.1
20150901181603 67 298 11.0 14.0 0.70 0.00 0.00 69 1015.0
20150901181103 67 262 9.0 13.0 0.70 0.00 0.00 71 1015.1
20150901180603 66 304 9.0 11.0 0.70 0.00 0.00 70 1015.2
20150901180103 66 309 9.0 11.0 0.70 0.00 0.00 70 1015.1
20150901175605 66 293 11.0 13.0 0.70 0.00 0.00 67 1015.2
20150901175104 67 271 7.0 9.0 0.70 0.00 0.00 72 1015.2
20150901174603 67 253 6.0 10.0 0.70 0.00 0.00 73 1015.2
20150901174103 67 304 7.0 11.0 0.70 0.00 0.00 72 1015.4
20150901173604 66 260 7.0 10.0 0.70 0.00 0.00 73 1015.4
20150901173106 66 276 8.0 10.0 0.70 0.00 0.00 72 1015.4
20150901172605 66 315 7.0 11.0 0.70 0.00 0.00 75 1015.4
20150901172105 66 308 7.0 9.0 0.70 0.00 0.00 74 1015.6
20150901171604 66 290 10.0 13.0 0.70 0.00 0.00 74 1015.6
20150901171103 66 295 9.0 14.0 0.70 0.00 0.00 74 1015.6
20150901170604 66 318 7.0 9.0 0.70 0.00 0.00 74 1015.7
20150901170152 66 301 7.0 9.0 0.70 0.00 0.00 75 1015.8
20150901170103 66 301 7.0 9.0 0.70 0.00 0.00 75 1015.8
20150901165606 66 256 8.0 10.0 0.70 0.00 0.00 77 1015.8
20150901165104 65 300 8.0 10.0 0.70 0.00 0.00 77 1015.9
20150901164605 65 271 9.0 12.0 0.70 0.00 0.00 77 1015.9
20150901164103 65 273 10.0 13.0 0.70 0.00 0.00 77 1016.0
20150901163603 65 214 10.0 14.0 0.70 0.00 0.00 76 1016.0
20150901163106 65 250 10.0 12.0 0.70 0.00 0.00 78 1016.1
20150901162604 64 264 8.0 11.0 0.70 0.00 0.00 79 1016.2
20150901162103 63 246 8.0 10.0 0.70 0.00 0.00 81 1016.2
20150901161603 63 359 9.0 16.0 0.70 0.00 0.00 82 1016.2
20150901161104 62 284 8.0 12.0 0.70 0.00 0.00 83 1016.4
20150901160822 62 359 7.0 10.0 0.70 0.00 0.00 82 1016.5
20150901160604 62 359 7.0 10.0 0.70 0.00 0.00 82 1016.5
20150901160103 62 359 10.0 13.0 0.70 0.00 0.00 82 1016.6
20150901155604 63 359 11.0 20.0 0.70 0.00 0.00 83 1016.6
20150901155105 63 262 11.0 17.0 0.70 0.00 0.00 82 1016.5
20150901154603 63 359 8.0 14.0 0.70 0.00 0.00 84 1016.7
20150901154104 62 235 8.0 11.0 0.70 0.00 0.00 85 1016.7
20150901153843 62 277 9.0 13.0 0.70 0.00 0.00 86 1016.7
20150901153604 62 274 8.0 12.0 0.70 0.00 0.00 85 1016.8
20150901153104 62 278 11.0 14.0 0.70 0.00 0.00 85 1016.6
20150901152605 62 277 9.0 13.0 0.70 0.00 0.00 86 1016.7
20150901152110 62 278 10.0 13.0 0.70 0.00 0.00 87 1016.7
20150901151604 62 273 10.0 13.0 0.70 0.00 0.00 88 1016.8
20150901151328 61 283 9.0 12.0 0.70 0.00 0.00 88 1016.8
20150901151105 61 283 9.0 12.0 0.70 0.00 0.00 88 1016.8
20150901150604 61 270 12.0 15.0 0.70 0.00 0.00 88 1017.0
20150901150103 61 291 9.0 12.0 0.70 0.00 0.00 89 1016.9
20150901145604 62 273 11.0 14.0 0.70 0.00 0.00 89 1016.9
20150901145104 62 273 11.0 14.0 0.70 0.00 0.00 90 1016.9
20150901144604 61 267 10.0 13.0 0.70 0.00 0.00 91 1016.8
20150901144106 61 285 10.0 12.0 0.70 0.00 0.00 91 1016.9
20150901143603 61 269 10.0 12.0 0.70 0.00 0.00 91 1016.9
20150901143104 61 359 9.0 15.0 0.70 0.00 0.00 92 1016.8
20150901142607 60 266 9.0 13.0 0.70 0.00 0.00 92 1016.9
20150901142104 60 284 9.0 12.0 0.70 0.00 0.00 93 1017.0
20150901141605 60 267 7.0 9.0 0.70 0.00 0.00 93 1016.9
20150901141112 60 271 7.0 9.0 0.70 0.00 0.00 93 1016.8
20150901140645 59 304 8.0 9.0 0.70 0.00 0.00 93 1017.0
20150901140603 59 304 8.0 9.0 0.70 0.00 0.00 93 1017.0
20150901140252 59 295 9.0 10.0 0.70 0.00 0.00 93 1016.9
20150901140104 59 295 9.0 10.0 0.70 0.00 0.00 93 1016.9
20150901135603 59 280 8.0 10.0 0.70 0.00 0.00 94 1016.8
20150901135105 59 276 8.0 9.0 0.70 0.00 0.00 94 1016.9
20150901134605 58 287 8.0 9.0 0.70 0.00 0.00 94 1016.9
20150901134106 59 284 8.0 9.0 0.70 0.00 0.00 94 1016.7
20150901133605 58 281 7.0 9.0 0.70 0.00 0.00 94 1016.8
20150901133104 58 290 8.0 10.0 0.70 0.00 0.00 94 1016.9
20150901132604 57 291 8.0 10.0 0.70 0.00 0.00 94 1017.0
20150901132106 58 359 8.0 11.0 0.70 0.00 0.00 94 1016.9
20150901131606 58 281 9.0 12.0 0.70 0.00 0.00 95 1016.9
20150901131105 55 359 9.0 13.0 0.70 0.00 0.00 95 1017.0
20150901130603 57 273 9.0 13.0 0.70 0.00 0.00 95 1017.0
20150901130105 57 273 9.0 13.0 0.70 0.00 0.00 95 1016.8
20150901125605 57 359 12.0 14.0 0.70 0.00 0.00 95 1016.8
20150901125104 56 359 11.0 13.0 0.70 0.00 0.00 95 1016.9
20150901124604 57 359 10.0 13.0 0.70 0.00 0.00 95 1016.8
20150901124105 57 260 9.0 14.0 0.70 0.00 0.00 95 1016.8
20150901123605 56 239 7.0 12.0 0.70 0.00 0.00 95 1016.8
20150901123104 56 359 9.0 13.0 0.70 0.00 0.00 95 1016.7
20150901122604 56 359 9.0 13.0 0.70 0.00 0.00 95 1016.8
20150901122104 56 262 10.0 13.0 0.70 0.00 0.00 96 1016.8
20150901121604 56 270 9.0 12.0 0.70 0.00 0.00 96 1016.8
20150901121106 55 281 10.0 12.0 0.70 0.00 0.00 96 1016.7
20150901120604 56 291 9.0 12.0 0.70 0.00 0.00 96 1016.7
20150901120107 57 291 9.0 10.0 0.70 0.00 0.00 96 1016.6
20150901115605 57 278 9.0 10.0 0.70 0.00 0.00 96 1016.6
20150901115105 57 273 9.0 12.0 0.70 0.00 0.00 96 1016.6
20150901114604 57 274 9.0 10.0 0.70 0.00 0.00 96 1016.6
20150901114105 57 274 9.0 10.0 0.70 0.00 0.00 96 1016.5
20150901113604 57 270 10.0 10.0 0.70 0.00 0.00 96 1016.5
20150901113107 57 278 10.0 12.0 0.70 0.00 0.00 96 1016.5
20150901112604 57 271 9.0 12.0 0.70 0.00 0.00 96 1016.4
20150901112104 57 271 9.0 10.0 0.70 0.00 0.00 96 1016.5
20150901111605 57 277 9.0 10.0 0.70 0.00 0.00 96 1016.5
20150901111105 57 283 9.0 10.0 0.70 0.00 0.00 96 1016.5
20150901110604 57 276 9.0 10.0 0.70 0.00 0.00 96 1016.4
20150901110247 57 273 9.0 10.0 0.70 0.00 0.00 96 1016.3
20150901110104 57 273 9.0 10.0 0.70 0.00 0.00 96 1016.3
20150901105604 57 262 9.0 12.0 0.70 0.00 0.00 96 1016.3
20150901105104 57 262 9.0 10.0 0.70 0.00 0.00 96 1016.3
20150901104604 57 273 9.0 10.0 0.70 0.00 0.00 96 1016.2
20150901104105 57 278 10.0 11.0 0.70 0.00 0.00 96 1016.0
20150901103604 57 277 9.0 10.0 0.70 0.00 0.00 96 1016.1
20150901103104 57 290 11.0 14.0 0.70 0.00 0.00 96 1016.0
20150901102604 57 359 11.0 14.0 0.70 0.00 0.00 96 1015.9
20150901102104 57 295 11.0 12.0 0.70 0.00 0.00 95 1015.9
20150901101606 57 276 12.0 13.0 0.70 0.00 0.00 96 1015.9
20150901101105 57 278 10.0 12.0 0.70 0.00 0.00 95 1015.9
20150901100604 56 359 13.0 16.0 0.70 0.00 0.00 95 1015.8
20150901100104 56 359 12.0 14.0 0.70 0.00 0.00 95 1015.7
20150901095604 56 276 11.0 13.0 0.70 0.00 0.00 95 1015.7
20150901095104 56 274 10.0 12.0 0.70 0.00 0.00 95 1015.8
20150901094605 56 264 10.0 11.0 0.70 0.00 0.00 95 1015.8
20150901094104 57 271 10.0 12.0 0.70 0.00 0.00 95 1015.5
20150901093604 57 270 11.0 12.0 0.70 0.00 0.00 95 1015.5
20150901093302 57 359 12.0 16.0 0.70 0.00 0.00 95 1015.5
20150901093105 57 359 12.0 16.0 0.70 0.00 0.00 95 1015.5
20150901092604 57 242 11.0 17.0 0.70 0.00 0.00 95 1015.4
20150901092104 57 359 12.0 13.0 0.70 0.00 0.00 95 1015.6
20150901091604 57 359 11.0 14.0 0.70 0.00 0.00 95 1015.4
20150901091105 57 359 13.0 16.0 0.70 0.00 0.00 95 1015.4
20150901090607 57 273 11.0 14.0 0.70 0.00 0.00 95 1015.4
20150901090104 58 269 11.0 13.0 0.70 0.00 0.00 95 1015.4
20150901085604 58 281 10.0 11.0 0.70 0.00 0.00 95 1015.4
20150901085104 58 270 9.0 11.0 0.70 0.00 0.00 95 1015.5
20150901084604 57 260 9.0 11.0 0.70 0.00 0.00 95 1015.4
20150901084104 57 264 9.0 11.0 0.70 0.00 0.00 95 1015.3
20150901083604 58 276 9.0 10.0 0.70 0.00 0.00 94 1015.4
20150901083258 58 266 9.0 10.0 0.70 0.00 0.00 94 1015.2
20150901083106 58 266 9.0 10.0 0.70 0.00 0.00 94 1015.2
20150901082608 58 269 9.0 9.0 0.70 0.00 0.00 94 1015.3
20150901082104 58 270 8.0 10.0 0.70 0.00 0.00 94 1015.2
20150901081604 58 280 8.0 10.0 0.70 0.00 0.00 94 1015.2
20150901081104 59 280 8.0 10.0 0.70 0.00 0.00 94 1015.0
20150901080604 59 0 0.0 0.0 0.70 0.00 0.00 93 1015.2
20150901080105 59 283 7.0 8.0 0.70 0.00 0.00 93 1015.0
20150901075605 59 359 7.0 10.0 0.70 0.00 0.00 93 1015.1
20150901075104 59 291 7.0 9.0 0.70 0.00 0.00 94 1015.0
20150901074604 59 283 7.0 9.0 0.70 0.00 0.00 94 1015.1
20150901074108 59 298 7.0 8.0 0.70 0.00 0.00 94 1015.0
20150901073604 59 287 7.0 9.0 0.70 0.00 0.00 94 1015.1
20150901073136 59 293 7.0 10.0 0.70 0.00 0.00 94 1015.0
20150901073105 59 293 7.0 10.0 0.70 0.00 0.00 94 1015.0
20150901072604 59 285 7.0 9.0 0.70 0.00 0.00 94 1015.0
20150901072148 59 359 7.0 9.0 0.70 0.00 0.00 94 1014.8
20150901072108 59 359 7.0 9.0 0.70 0.00 0.00 94 1014.8
20150901071606 59 287 7.0 8.0 0.70 0.00 0.00 94 1014.8
20150901071104 59 276 8.0 10.0 0.70 0.00 0.00 94 1014.7
20150901070728 59 267 7.0 8.0 0.70 0.00 0.00 94 1014.7
20150901070605 59 267 7.0 8.0 0.70 0.00 0.00 94 1014.7
20150901070105 59 283 7.0 9.0 0.70 0.00 0.00 94 1014.7
20150901065717 58 283 7.0 8.0 0.70 0.00 0.00 94 1014.7
20150901065605 58 283 7.0 8.0 0.70 0.00 0.00 94 1014.7
20150901065105 58 277 8.0 9.0 0.70 0.00 0.00 94 1014.5
20150901064604 58 278 9.0 11.0 0.70 0.00 0.00 94 1014.5
20150901064105 59 287 9.0 11.0 0.70 0.00 0.00 94 1014.5
20150901063606 59 280 7.0 9.0 0.70 0.00 0.00 94 1014.6
20150901063104 59 359 7.0 10.0 0.70 0.00 0.00 94 1014.6
20150901062608 59 359 7.0 9.0 0.70 0.00 0.00 94 1014.5
20150901062106 59 294 7.0 8.0 0.70 0.00 0.00 95 1014.5
20150901061604 59 293 8.0 9.0 0.70 0.00 0.00 95 1014.5
20150901061106 59 295 8.0 9.0 0.70 0.00 0.00 95 1014.5
20150901060714 59 307 7.0 9.0 0.70 0.00 0.00 95 1014.4
20150901060608 59 307 7.0 9.0 0.70 0.00 0.00 95 1014.4
20150901060105 59 309 7.0 10.0 0.70 0.00 0.00 95 1014.4
20150901055605 59 294 8.0 10.0 0.70 0.00 0.00 96 1014.5
20150901055104 59 305 7.0 9.0 0.70 0.00 0.00 96 1014.5
20150901054605 59 309 8.0 9.0 0.70 0.00 0.00 96 1014.3
20150901054105 59 293 8.0 9.0 0.70 0.00 0.00 96 1014.3
20150901053910 58 291 8.0 10.0 0.70 0.00 0.00 96 1014.3
20150901053604 58 291 8.0 10.0 0.70 0.00 0.00 96 1014.3
20150901053104 58 293 7.0 9.0 0.70 0.00 0.00 96 1014.3
20150901052606 58 285 7.0 9.0 0.70 0.00 0.00 96 1014.3
20150901052104 59 359 6.0 9.0 0.70 0.00 0.00 96 1014.2
20150901051605 58 359 7.0 9.0 0.70 0.00 0.00 96 1014.2
20150901051105 58 298 7.0 9.0 0.70 0.00 0.00 96 1014.2
20150901050642 58 359 6.0 9.0 0.70 0.00 0.00 96 1014.0
20150901050605 58 359 6.0 9.0 0.70 0.00 0.00 96 1014.0
20150901050240 58 298 9.0 11.0 0.70 0.00 0.00 96 1014.0
20150901050108 58 298 9.0 11.0 0.70 0.00 0.00 96 1014.0
20150901045605 58 312 8.0 10.0 0.70 0.00 0.00 95 1014.0
20150901045107 58 322 9.0 10.0 0.70 0.00 0.00 95 1014.1
20150901044605 58 316 8.0 10.0 0.70 0.00 0.00 95 1014.0
20150901044104 58 300 7.0 10.0 0.70 0.00 0.00 95 1014.0
20150901043605 58 305 8.0 9.0 0.70 0.00 0.00 95 1013.9
20150901043104 58 293 8.0 9.0 0.70 0.00 0.00 95 1013.9
20150901042605 58 302 8.0 10.0 0.70 0.00 0.00 95 1013.9
20150901042106 57 318 7.0 10.0 0.70 0.00 0.00 95 1013.8
20150901041605 58 359 8.0 9.0 0.70 0.00 0.00 95 1013.7
20150901041116 57 304 8.0 10.0 0.70 0.00 0.00 95 1013.7
20150901040608 58 347 8.0 10.0 0.70 0.00 0.00 95 1013.6
20150901040105 58 314 8.0 10.0 0.70 0.00 0.00 95 1013.6
20150901035605 58 359 8.0 10.0 0.70 0.00 0.00 95 1013.7
20150901035106 58 359 4.0 9.0 0.70 0.00 0.00 95 1013.5
20150901034609 58 0 0.0 0.0 0.70 0.00 0.00 95 1013.4
20150901034105 58 0 0.0 0.0 0.70 0.00 0.00 95 1013.7
20150901033605 58 0 0.0 0.0 0.70 0.00 0.00 95 1013.3
20150901033106 58 336 8.0 9.0 0.70 0.00 0.00 95 1013.5
20150901032605 58 336 10.0 25.0 0.70 0.00 0.00 95 1013.6
20150901032105 58 340 10.0 15.0 0.70 0.00 0.00 95 1013.5
20150901031605 58 1 11.0 30.0 0.70 0.00 0.00 95 1013.5
20150901031105 58 13 11.0 30.0 0.70 0.00 0.00 94 1013.4
20150901030605 58 7 11.0 32.0 0.70 0.00 0.00 94 1013.4
20150901030105 59 339 9.0 12.0 0.70 0.00 0.00 94 1013.3
20150901025605 59 357 11.0 28.0 0.70 0.00 0.00 94 1013.3
20150901025107 59 338 11.0 31.0 0.70 0.00 0.00 94 1013.3
20150901024713 59 6 10.0 31.0 0.70 0.00 0.00 94 1013.2
20150901024605 59 6 10.0 31.0 0.70 0.00 0.00 94 1013.2
20150901024106 59 30 9.0 30.0 0.70 0.00 0.00 94 1013.4
20150901023607 59 339 10.0 13.0 0.70 0.00 0.00 94 1013.3
20150901023303 59 352 9.0 12.0 0.70 0.00 0.00 94 1013.4
20150901023106 59 352 9.0 12.0 0.70 0.00 0.00 94 1013.4
20150901022608 59 328 9.0 12.0 0.70 0.00 0.00 93 1013.3
20150901022109 59 345 9.0 11.0 0.70 0.00 0.00 93 1013.5
20150901021606 58 329 8.0 10.0 0.70 0.00 0.00 93 1013.5
20150901021109 59 330 8.0 11.0 0.70 0.00 0.00 92 1013.4
20150901020606 59 346 8.0 11.0 0.70 0.00 0.00 92 1013.4
20150901020107 59 330 8.0 10.0 0.70 0.00 0.00 91 1013.3
20150901015605 59 328 9.0 12.0 0.70 0.00 0.00 91 1013.3
20150901015109 59 359 8.0 10.0 0.70 0.00 0.00 91 1013.2
20150901014605 60 325 7.0 11.0 0.70 0.00 0.00 91 1013.2
20150901014106 60 333 8.0 11.0 0.70 0.00 0.00 91 1013.3
20150901013605 60 333 8.0 10.0 0.70 0.00 0.00 91 1013.4
20150901013105 60 315 8.0 10.0 0.70 0.00 0.00 91 1013.3
20150901012607 60 359 9.0 13.0 0.70 0.00 0.00 90 1013.3
20150901012452 60 326 8.0 11.0 0.70 0.00 0.00 90 1013.3
20150901012105 60 326 8.0 11.0 0.70 0.00 0.00 90 1013.3
20150901011805 60 359 8.0 10.0 0.70 0.00 0.00 90 1013.3
20150901011606 60 359 8.0 10.0 0.70 0.00 0.00 90 1013.3
20150901011105 60 316 8.0 12.0 0.70 0.00 0.00 90 1013.4
20150901010607 60 359 8.0 10.0 0.70 0.00 0.00 89 1013.4
20150901010109 61 359 8.0 10.0 0.70 0.00 0.00 89 1013.4
20150901005607 61 359 8.0 11.0 0.70 0.00 0.00 89 1013.4
20150901005105 61 314 8.0 11.0 0.70 0.00 0.00 88 1013.3
20150901004606 61 338 8.0 10.0 0.70 0.00 0.00 88 1013.3
20150901004107 61 359 8.0 10.0 0.70 0.00 0.00 88 1013.3
20150901003605 61 359 7.0 10.0 0.70 0.00 0.00 88 1013.2
20150901003107 61 0 0.0 0.0 0.70 0.00 0.00 87 1013.1
20150901002606 61 0 0.0 0.0 0.70 0.00 0.00 87 1013.2
20150901002106 62 0 0.0 0.0 0.70 0.00 0.00 87 1013.1
20150901001610 62 0 0.0 0.0 0.70 0.00 0.00 86 1013.0
20150901001105 62 0 0.0 0.0 0.70 0.00 0.00 86 1013.1
20150901000607 62 0 0.0 0.0 0.70 0.00 0.00 86 1013.2
20150901000106 62 0 0.0 0.0 0.70 0.00 0.00 85 1013.1
20150831235606 62 0 0.0 0.0 0.70 0.00 0.00 84 1013.2
20150831235141 62 287 4.0 8.0 0.70 0.00 0.00 84 1013.2
20150831235107 62 287 4.0 8.0 0.70 0.00 0.00 84 1013.2
20150831234606 62 308 6.0 8.0 0.70 0.00 0.00 83 1013.2
20150831234107 63 339 6.0 8.0 0.70 0.00 0.00 83 1013.2
20150831233608 63 315 6.0 9.0 0.70 0.00 0.00 82 1013.2
20150831233106 61 321 6.0 9.0 0.70 0.00 0.00 82 1013.2
20150831232605 62 309 5.0 6.0 0.70 0.00 0.00 81 1013.2
20150831232105 62 326 6.0 8.0 0.70 0.00 0.00 81 1013.2
20150831231605 62 311 6.0 8.0 0.70 0.00 0.00 76 1013.2
20150831231105 63 312 5.0 9.0 0.70 0.00 0.00 81 1013.3
20150831230606 63 319 6.0 10.0 0.70 0.00 0.00 75 1013.3
20150831230159 63 325 7.0 10.0 0.70 0.00 0.00 80 1013.2
20150831230108 63 325 7.0 10.0 0.70 0.00 0.00 80 1013.2
20150831225605 63 325 6.0 9.0 0.70 0.00 0.00 79 1013.3
20150831225105 64 315 7.0 9.0 0.70 0.00 0.00 78 1013.3
20150831224606 63 307 6.0 8.0 0.70 0.00 0.00 78 1013.4
20150831224106 63 298 8.0 11.0 0.70 0.00 0.00 77 1013.3
20150831223605 64 333 7.0 10.0 0.70 0.00 0.00 77 1013.5
20150831223105 64 328 7.0 10.0 0.70 0.00 0.00 76 1013.5
20150831222606 65 312 9.0 11.0 0.70 0.00 0.00 75 1013.5
20150831222105 65 302 8.0 10.0 0.70 0.00 0.00 75 1013.5
20150831221605 66 335 9.0 11.0 0.70 0.00 0.00 75 1013.5
20150831221105 66 347 8.0 9.0 0.70 0.00 0.00 75 1013.4
20150831220606 66 319 6.0 9.0 0.70 0.00 0.00 74 1013.3
20150831220107 66 330 8.0 11.0 0.70 0.00 0.00 75 1013.3
20150831215606 66 330 8.0 11.0 0.70 0.00 0.00 74 1013.3
20150831215105 66 308 9.0 13.0 0.70 0.00 0.00 74 1013.3
20150831214609 66 302 8.0 13.0 0.70 0.00 0.00 74 1013.3
20150831214105 66 326 9.0 11.0 0.70 0.00 0.00 75 1013.4
20150831213609 67 304 8.0 11.0 0.70 0.00 0.00 75 1013.4
20150831213105 66 330 8.0 11.0 0.70 0.00 0.00 75 1013.3
20150831212606 67 287 10.0 15.0 0.70 0.00 0.00 74 1013.4
20150831212105 67 304 10.0 12.0 0.70 0.00 0.00 74 1013.4
20150831211606 67 312 8.0 11.0 0.70 0.00 0.00 74 1013.4
20150831211106 67 328 9.0 13.0 0.70 0.00 0.00 74 1013.6
20150831210606 67 318 9.0 11.0 0.70 0.00 0.00 74 1013.7
20150831210107 67 312 10.0 13.0 0.70 0.00 0.00 74 1013.6
20150831205605 67 339 9.0 11.0 0.70 0.00 0.00 74 1013.6
20150831205106 67 288 11.0 13.0 0.70 0.00 0.00 74 1013.6
20150831204607 67 294 11.0 14.0 0.70 0.00 0.00 73 1013.6
20150831204107 67 302 10.0 15.0 0.70 0.00 0.00 72 1013.6
20150831203606 66 293 10.0 15.0 0.70 0.00 0.00 73 1013.6
20150831203106 66 298 7.0 11.0 0.70 0.00 0.00 73 1013.7
20150831202606 67 302 9.0 13.0 0.70 0.00 0.00 74 1013.7
20150831202107 67 311 8.0 10.0 0.70 0.00 0.00 73 1013.7
20150831201607 67 333 10.0 13.0 0.70 0.00 0.00 73 1013.7